Regional Weather Roundup
Issued by NWS

Home | Current Version | Previous Version | Text Only | Print | Product List | Glossary On
Versions: 1 2 3 4 5 6 7 8 9 10 11 12 13 14 15 16 17 18 19 20 21 22 23 24 25 26 27 28
000
ASUS44 KBMX 200010
RWRAL

ALABAMA REGIONAL WEATHER ROUNDUP
NATIONAL WEATHER SERVICE BIRMINGHAM AL
600 PM CST THU JAN 19 2017

NOTE: "FAIR" INDICATES FEW OR NO CLOUDS BELOW 12,000 FEET
WITH NO SIGNIFICANT WEATHER AND/OR OBSTRUCTIONS TO VISIBILITY.

THE REMARK "TC" DENOTES TEMPERATURE IN DEGREES CELSIUS.

ALZ001>011-014-016>018-020-200100-
NORTH ALABAMA

CITY           SKY/WX    TMP DP  RH WIND       PRES   REMARKS
MUSCLE SHOALS  LGT RAIN  60  57  89 NE10      29.76F
6HR MIN TEMP:  60; 6HR MAX TEMP:  65; 6HR PCP:  0.62;

HUNTSVILLE     LGT RAIN  63  62  97 SE12      29.78F
6HR MIN TEMP:  62; 6HR MAX TEMP:  66; 6HR PCP:  0.83;

DECATUR        LGT RAIN  62  62 100 SE9       29.77F
6HR MIN TEMP:  61; 6HR MAX TEMP:  64; 6HR PCP:  1.16;

HALEYVILLE     LGT RAIN  61  61 100 S8        29.78F
6HR MIN TEMP:  61; 6HR MAX TEMP:  63; 6HR PCP:  0.89;

GADSDEN        RAIN      59  59 100 NW3       29.83R
6HR MIN TEMP:  58; 6HR MAX TEMP:  60; 6HR PCP:  0.10;

$$

ALZ012-013-022-023-030>036-040>044-200100-
WEST CENTRAL ALABAMA

CITY           SKY/WX    TMP DP  RH WIND       PRES   REMARKS
TUSCALOOSA     LGT RAIN  64  63  96 S8        29.81R
6HR MIN TEMP:  64; 6HR MAX TEMP:  66; 6HR PCP:  1.03;

$$

ALZ015-024>027-033>036-040>044-200100-
CENTRAL ALABAMA

CITY           SKY/WX    TMP DP  RH WIND       PRES   REMARKS
BIRMINGHAM     RAIN      63  62  97 SE5       29.84S
6HR MIN TEMP:  62; 6HR MAX TEMP:  66; 6HR PCP:  1.08;

MONTGOMERY     CLOUDY    74  62  66 S12       29.82S
6HR MIN TEMP:  73; 6HR MAX TEMP:  78;

SHELBY CO ARPT HVY RAIN  63  63 100 SW3       29.83S FOG
6HR MIN TEMP:  63; 6HR MAX TEMP:  69; 6HR PCP:  0.67;

MAXWELL AFB    CLOUDY    72  64  75 S10       29.81S
6HR MIN TEMP:  72; 6HR MAX TEMP:  77;

GREENVILLE     MOCLDY    72  62  71 S8        29.82F
6HR MIN TEMP:  70; 6HR MAX TEMP:  77;

$$

ALZ019-021-028-029-037-038-045>048-200100-
EAST CENTRAL ALABAMA

CITY           SKY/WX    TMP DP  RH WIND       PRES   REMARKS
ANNISTON       CLOUDY    69  61  75 SE6       29.83R
6HR MIN TEMP:  68; 6HR MAX TEMP:  71;

ALEXANDER CITY CLOUDY    71  65  80 SE6       29.84S
6HR MIN TEMP:  70; 6HR MAX TEMP:  74;

AUBURN         CLOUDY    69  61  75 SE6       29.87S
6HR MIN TEMP:  64; 6HR MAX TEMP:  75;

$$

ALZ051>064-200100-
SOUTHWEST ALABAMA

CITY           SKY/WX    TMP DP  RH WIND       PRES   REMARKS
MOBILE         HVY RAIN  65  62  90 SW16G26   29.86R VSB 1
6HR MIN TEMP:  65; 6HR MAX TEMP:  76; 6HR PCP:  0.34;

BROOKLEY FIELD TSTM      70  69  97 S6        29.87R FOG
6HR MIN TEMP:  70; 6HR MAX TEMP:  74; 6HR PCP:  0.13;

EVERGREEN      CLOUDY    71  65  81 S18G24    29.84S
6HR MIN TEMP:  71; 6HR MAX TEMP:  78;

$$

ALZ049-050-065>069-200100-
SOUTHEAST ALABAMA

CITY           SKY/WX    TMP DP  RH WIND       PRES   REMARKS
DOTHAN         PTCLDY    71  63  75 S9        29.92R
6HR MIN TEMP:  71; 6HR MAX TEMP:  78;

OZARK          MOCLDY    71  64  79 S12       29.88R
6HR MIN TEMP:  71; 6HR MAX TEMP:  79;

TROY           MOCLDY    71  63  75 S10       29.86S
6HR MIN TEMP:  69; 6HR MAX TEMP:  76; 6HR PCP:  0.43;

EUFAULA        FAIR      71  62  73 S6        29.87R
6HR MIN TEMP:  71; 6HR MAX TEMP:  80;

$$




USA.gov is the U.S. government's official web portal to all federal, state and local government web resources and services.